[Date Prev][Date Next][Thread Prev][Thread Next] - [Date Index][Thread Index][Author Index]
2 Line ISS Keps 6-13
- Subject: [sarex] 2 Line ISS Keps 6-13
- From: "Dave Larsen PhD" <doc@xxxxxxxxxxx>
- Date: Sun, 12 Jun 2005 20:32:14 -0700
ISS
1 25544U 98067A 05163.35373263 .00013300 00000-0 10089-3 0 6712
2 25544 051.6457 285.6812 0004227 242.8590 212.9670 15.72715951374922
----
Via the sarex mailing list at AMSAT.ORG courtesy of AMSAT-NA.
To unsubscribe, send "unsubscribe sarex" to Majordomo@amsat.org
AMSAT Home